Jefferson, NC

4:36 AM EDT on October 21, 2019 (GMT -0400)
Ashe County

Weather History for KGEV - August, 2019

Change the Weather History Date:

Saturday, August 3, 2019

  Actual Average Record
Temperature  
Mean Temperature 66 °F -  
Max Temperature 75 °F 79 °F 89 °F (1987)
Min Temperature 56 °F 58 °F 48 °F (1976)
Growing Degree Days 16 (Base 50)    
Moisture  
Dew Point 62 °F    
Average Humidity 89    
Maximum Humidity 100    
Minimum Humidity 64    
Precipitation  
Precipitation 0.00 in - - ()
Sea Level Pressure  
Sea Level Pressure 30.15 in    
Wind  
Wind Speed 1 mph ()    
Max Wind Speed 8 mph    
Max Gust Speed -    
Visibility 6.1 miles    
Events Fog , Rain , Thunderstorm    
Averages and records for this station are not official NWS values.
T = Trace of Precipitation, MM = Missing Value Source: Averaged Metar Reports

Daily Weather History Graph

Daily Weather History Graph

Search for Another Location

Airport or City:

Astronomy

Aug. 03, 2019 Rise Set
Actual Time 6:33 AM EDT 8:29 PM EDT
Civil Twilight 6:05 AM EDT 8:57 PM EDT
Nautical Twilight 5:30 AM EDT 9:32 PM EDT
Astronomical Twilight 4:53 AM EDT 10:08 PM EDT
Moon 9:21 AM EDT (8/3) 10:39 PM EDT (8/3)
Length of Visible Light 14h 52m
Length of Day
13h 56m
Waxing Crescent, 10% of the Moon is Illuminated
Aug 3
Waxing Crescent
Aug 7
First Quarter
Aug 15
Full
Aug 23
Last Quarter
Aug 30
New

Hourly Weather History & Observations

Time (EDT) Temp. Dew Point Humidity Pressure Visibility Wind Dir Wind Speed Gust Speed Precip Events Conditions
12:15 AM 59.9 °F 59.9 °F 100% 30.21 in 0.2 mi Calm Calm - N/A Fog Fog
12:35 AM 60.8 °F 60.8 °F 100% 30.20 in 0.2 mi Calm Calm - N/A Fog Fog
12:55 AM 60.1 °F 60.1 °F 100% 30.20 in 0.2 mi Calm Calm - N/A Fog Fog
1:15 AM 59.9 °F 59.9 °F 100% 30.20 in 0.2 mi Calm Calm - N/A Fog Fog
1:35 AM 59.9 °F 59.9 °F 100% 30.20 in 0.2 mi Calm Calm - N/A Fog Fog
1:55 AM 60.4 °F 60.4 °F 100% 30.20 in 1.5 mi Calm Calm - N/A   Mostly Cloudy
2:15 AM 59.9 °F 59.9 °F 100% 30.19 in 0.8 mi Calm Calm - N/A   Overcast
2:35 AM 59.5 °F 59.5 °F 100% 30.18 in 0.5 mi Calm Calm - N/A Fog Fog
2:55 AM 60.6 °F 60.6 °F 100% 30.17 in 10.0 mi NE 3.5 mph - N/A   Mostly Cloudy
3:15 AM 59.7 °F 59.7 °F 100% 30.17 in 2.0 mi Calm Calm - N/A   Mostly Cloudy
3:35 AM 59.9 °F 59.9 °F 100% 30.15 in 1.5 mi Calm Calm - N/A   Mostly Cloudy
3:55 AM 57.9 °F 57.9 °F 100% 30.15 in 0.5 mi Calm Calm - N/A Fog Fog
4:15 AM 58.1 °F 58.1 °F 100% 30.15 in 0.5 mi Calm Calm - N/A Fog Fog
4:55 AM 58.1 °F 58.1 °F 100% 30.15 in 0.2 mi Calm Calm - N/A Fog Fog
5:15 AM 57.4 °F 57.4 °F 100% 30.15 in 0.2 mi Calm Calm - N/A Fog Fog
5:35 AM 57.6 °F 57.6 °F 100% 30.14 in 0.2 mi North 3.5 mph - N/A Fog Fog
5:55 AM 57.4 °F 57.4 °F 100% 30.14 in 0.2 mi Calm Calm - N/A Fog Fog
6:15 AM 56.7 °F 56.7 °F 100% 30.15 in 0.2 mi Calm Calm - N/A Fog Fog
6:35 AM 57.0 °F 57.0 °F 100% 30.15 in 0.2 mi Calm Calm - N/A Fog Fog
6:55 AM 56.3 °F 56.3 °F 100% 30.16 in 0.2 mi Calm Calm - N/A Fog Fog
7:15 AM 57.4 °F 57.4 °F 100% 30.16 in 0.2 mi Calm Calm - N/A Fog Fog
7:35 AM 57.7 °F 57.7 °F 100% 30.17 in 0.2 mi Calm Calm - N/A Fog Fog
7:55 AM 58.6 °F 58.6 °F 100% 30.17 in 0.2 mi Calm Calm - N/A Fog Fog
8:15 AM 59.2 °F 59.2 °F 100% 30.17 in 0.2 mi Calm Calm - N/A Fog Fog
8:35 AM 59.0 °F 59.0 °F 100% 30.17 in 0.2 mi Calm Calm - N/A Fog Fog
8:55 AM 60.3 °F 60.3 °F 100% 30.17 in 0.2 mi Calm Calm - N/A Fog Fog
9:35 AM 61.3 °F 61.3 °F 100% 30.17 in 0.2 mi Calm Calm - N/A Fog Fog
9:55 AM 62.6 °F 62.6 °F 100% 30.17 in 2.0 mi Calm Calm - N/A   Overcast
10:15 AM 64.4 °F 64.4 °F 100% 30.17 in 10.0 mi Calm Calm - N/A   Mostly Cloudy
10:35 AM 65.3 °F 64.9 °F 99% 30.17 in 10.0 mi Calm Calm - N/A   Scattered Clouds
10:55 AM 66.7 °F 65.3 °F 95% 30.17 in 10.0 mi Calm Calm - N/A   Clear
11:15 AM 66.9 °F 64.4 °F 92% 30.17 in 10.0 mi Calm Calm - N/A   Scattered Clouds
11:35 AM 69.3 °F 65.3 °F 87% 30.17 in 10.0 mi ENE 5.8 mph - N/A   Mostly Cloudy
11:55 AM 73.2 °F 64.9 °F 75% 30.17 in 10.0 mi ENE 5.8 mph - N/A   Mostly Cloudy
12:15 PM 73.0 °F 63.9 °F 73% 30.17 in 10.0 mi East 3.5 mph - N/A   Mostly Cloudy
12:35 PM 73.9 °F 63.3 °F 69% 30.16 in 10.0 mi East 5.8 mph - N/A   Mostly Cloudy
12:55 PM 75.0 °F 63.3 °F 67% 30.15 in 10.0 mi East 4.6 mph - N/A   Mostly Cloudy
1:15 PM 74.5 °F 63.3 °F 68% 30.15 in 10.0 mi ENE 4.6 mph - N/A   Scattered Clouds
1:35 PM 75.4 °F 62.2 °F 64% 30.15 in 10.0 mi NE 3.5 mph - N/A   Scattered Clouds
1:55 PM 75.9 °F 63.1 °F 64% 30.14 in 10.0 mi NNE 5.8 mph - N/A   Mostly Cloudy
2:15 PM 73.9 °F 63.5 °F 70% 30.14 in 10.0 mi NNW 5.8 mph - N/A   Mostly Cloudy
2:35 PM 74.7 °F 62.8 °F 66% 30.13 in 10.0 mi NNW 5.8 mph - N/A   Mostly Cloudy
2:55 PM 75.6 °F 64.0 °F 67% 30.13 in 10.0 mi NNW 8.1 mph - N/A   Scattered Clouds
3:15 PM 75.9 °F 63.0 °F 64% 30.12 in 10.0 mi North 5.8 mph - N/A   Scattered Clouds
3:35 PM 73.4 °F 65.3 °F 76% 30.12 in 10.0 mi East 3.5 mph - N/A Thunderstorm Thunderstorm
3:55 PM 69.1 °F 64.0 °F 84% 30.12 in 10.0 mi SSE 3.5 mph - N/A   Overcast
4:15 PM 67.1 °F 63.9 °F 89% 30.12 in 10.0 mi SSE 4.6 mph - N/A Rain Rain
4:35 PM 66.0 °F 63.9 °F 93% 30.11 in 10.0 mi Calm Calm - N/A   Overcast
4:55 PM 67.3 °F 63.3 °F 87% 30.11 in 10.0 mi SSW 3.5 mph - N/A   Mostly Cloudy
5:15 PM 68.2 °F 62.6 °F 82% 30.10 in 10.0 mi SSW 3.5 mph - N/A   Scattered Clouds
5:35 PM 70.0 °F 63.3 °F 79% 30.11 in 10.0 mi Calm Calm - N/A   Scattered Clouds
5:55 PM 70.2 °F 65.5 °F 85% 30.10 in 10.0 mi Calm Calm - N/A   Clear
6:15 PM 71.2 °F 65.7 °F 82% 30.10 in 10.0 mi Calm Calm - N/A   Clear
6:35 PM 71.2 °F 63.1 °F 75% 30.09 in 7.0 mi Calm Calm - N/A   Clear
6:55 PM 70.5 °F 63.9 °F 79% 30.10 in 10.0 mi Calm Calm - N/A   Clear
7:15 PM 71.1 °F 63.0 °F 75% 30.10 in 10.0 mi Calm Calm - N/A   Clear
7:35 PM 70.0 °F 63.5 °F 80% 30.10 in 10.0 mi Calm Calm - N/A   Clear
7:55 PM 68.9 °F 62.6 °F 80% 30.10 in 10.0 mi Calm Calm - N/A   Clear
8:15 PM 68.5 °F 63.5 °F 84% 30.11 in 10.0 mi Calm Calm - N/A   Scattered Clouds
8:35 PM 68.2 °F 65.3 °F 90% 30.12 in 10.0 mi Calm Calm - N/A   Scattered Clouds
8:55 PM 68.0 °F 64.9 °F 90% 30.12 in 10.0 mi Calm Calm - N/A   Clear
9:15 PM 68.5 °F 63.3 °F 83% 30.12 in 10.0 mi Calm Calm - N/A   Clear
9:35 PM 67.3 °F 62.2 °F 84% 30.12 in 10.0 mi Calm Calm - N/A   Clear
10:15 PM 64.8 °F 62.4 °F 92% 30.13 in 10.0 mi Calm Calm - N/A   Clear
10:35 PM 68.5 °F 61.7 °F 79% 30.13 in 10.0 mi West 4.6 mph - N/A   Clear
10:55 PM 65.3 °F 61.3 °F 87% 30.13 in 7.0 mi ESE 3.5 mph - N/A   Scattered Clouds
11:15 PM 62.6 °F 62.4 °F 99% 30.13 in 0.8 mi Calm Calm - N/A   Mostly Cloudy
11:35 PM 63.0 °F 61.7 °F 96% 30.13 in 10.0 mi Calm Calm - N/A   Scattered Clouds
11:55 PM 64.8 °F 61.9 °F 90% 30.13 in 10.0 mi Calm Calm - N/A   Clear